EW1970 Weather Reports


time (UTC)temp
C
wind
direction
speed
KPH
gust
KPH
rain 1hr
cm
rain 24hr
cm
rain mn
cm
humidity
%
barometer
mb
20260904013018 28 82 1.6 8.0 0.00 0.00 0.00 69 1012.5
20260904011519 28 123 1.6 14.5 0.00 0.00 0.00 68 1012.4
20260904010025 28 32 0.0 16.1 0.00 0.00 0.00 67 1012.3
20260904004507 29 104 1.6 14.5 0.00 0.00 0.00 67 1012.3
20260904003027 29 151 0.0 19.3 0.00 0.00 0.00 66 1012.2
20260904001518 30 43 0.0 8.0 0.00 0.00 0.00 65 1012.2
20260904000030 30 107 1.6 12.9 0.00 0.00 0.00 63 1012.0
20260903234530 31 164 1.6 19.3 0.00 0.00 0.00 62 1012.0
20260903233007 31 160 1.6 16.1 0.00 0.00 0.00 62 1011.8
20260903231513 32 146 3.2 12.9 0.00 0.00 0.00 61 1011.7
20260903230040 32 352 1.6 22.5 0.00 0.00 0.00 60 1011.7
20260903224531 33 275 4.8 24.1 0.00 0.00 0.00 60 1011.6
20260903223032 34 63 3.2 16.1 0.00 0.00 0.00 58 1011.3
20260903221513 34 295 3.2 14.5 0.00 0.00 0.00 57 1011.3
20260903220018 34 123 3.2 12.9 0.00 0.00 0.00 53 1011.3
20260903214537 35 84 1.6 9.7 0.00 0.00 0.00 51 1011.2
20260903213029 35 342 1.6 9.7 0.00 0.00 0.00 52 1011.4
20260903211530 35 53 1.6 12.9 0.00 0.00 0.00 50 1011.4
20260903210016 36 129 3.2 9.7 0.00 0.00 0.00 48 1011.7
20260903204524 36 27 1.6 9.7 0.00 0.00 0.00 50 1011.7
20260903203035 36 188 1.6 4.8 0.00 0.00 0.00 49 1012.0
20260903201535 38 179 1.6 9.7 0.00 0.00 0.00 44 1012.2
20260903200041 38 26 1.6 11.3 0.00 0.00 0.00 44 1012.3
20260903194520 37 105 1.6 11.3 0.00 0.00 0.00 46 1012.3
20260903193027 35 333 0.0 9.7 0.00 0.00 0.00 49 1012.5
20260903191505 34 134 0.0 3.2 0.00 0.00 0.00 54 1012.9
20260903190012 33 62 1.6 8.0 0.00 0.00 0.00 54 1013.1
20260903184516 33 113 0.0 8.0 0.00 0.00 0.00 54 1013.5
20260903183004 34 124 1.6 4.8 0.00 0.00 0.00 52 1013.7
20260903181505 35 238 1.6 14.5 0.00 0.00 0.00 52 1013.9
20260903180031 35 237 1.6 12.9 0.00 0.00 0.00 50 1014.1
20260903174510 33 215 0.0 3.2 0.00 0.00 0.00 55 1014.3
20260903173033 34 218 1.6 9.7 0.00 0.00 0.00 54 1014.4
20260903171510 35 108 3.2 11.3 0.00 0.00 0.00 52 1014.5
20260903170043 33 266 3.2 9.7 0.00 0.00 0.00 59 1014.5
20260903164510 32 124 1.6 4.8 0.00 0.00 0.00 62 1014.5
20260903163017 32 270 4.8 11.3 0.00 0.00 0.00 61 1014.5
20260903161528 32 199 3.2 16.1 0.00 0.00 0.00 61 1014.4
20260903160039 32 282 4.8 17.7 0.00 0.00 0.00 60 1014.5
20260903154512 32 259 8.0 16.1 0.00 0.00 0.00 63 1014.6
20260903153017 30 289 1.6 11.3 0.00 0.00 0.00 69 1014.5
20260903151521 29 269 0.0 9.7 0.00 0.00 0.00 71 1014.4
20260903150038 29 225 1.6 11.3 0.00 0.00 0.00 72 1014.4
20260903144508 28 183 3.2 14.5 0.00 0.00 0.00 75 1014.2
20260903143014 28 238 3.2 12.9 0.00 0.00 0.00 77 1014.3
20260903141526 27 230 3.2 11.3 0.00 0.00 0.00 79 1014.2
20260903140038 27 342 1.6 11.3 0.00 0.00 0.00 81 1014.3
20260903134533 27 284 1.6 11.3 0.00 0.00 0.00 83 1014.2
20260903133010 26 298 1.6 12.9 0.00 0.00 0.00 84 1014.3
20260903131516 26 254 1.6 11.3 0.00 0.00 0.00 84 1014.3
20260903130031 26 267 0.0 11.3 0.00 0.00 0.00 85 1014.3
20260903124527 26 234 1.6 8.0 0.00 0.00 0.00 85 1014.1
20260903123037 26 194 1.6 4.8 0.00 0.00 0.00 85 1014.1
20260903121515 26 225 1.6 12.9 0.00 0.00 0.00 85 1014.1
20260903120020 26 117 0.0 8.0 0.00 0.00 0.00 85 1014.1
20260903114531 26 309 1.6 4.8 0.00 0.00 0.00 85 1014.0
20260903113029 26 103 0.0 16.1 0.00 0.00 0.00 84 1014.0
20260903111533 26 172 0.0 14.5 0.00 0.00 0.00 84 1014.0
20260903110019 26 247 1.6 12.9 0.00 0.00 0.00 84 1013.9
20260903104526 26 277 1.6 11.3 0.00 0.00 0.00 84 1013.9
20260903103027 26 237 1.6 6.4 0.00 0.00 0.00 85 1013.7
20260903101511 26 190 1.6 9.7 0.00 0.00 0.00 85 1013.7
20260903100028 26 88 1.6 14.5 0.00 0.00 0.00 84 1013.6
20260903094528 26 283 1.6 9.7 0.00 0.00 0.00 84 1013.7
20260903093010 26 235 0.0 6.4 0.00 0.00 0.00 83 1013.8
20260903091507 26 228 1.6 9.7 0.00 0.00 0.00 83 1013.9
20260903090019 26 122 3.2 9.7 0.00 0.00 0.00 83 1013.9
20260903084529 26 119 1.6 9.7 0.00 0.00 0.00 83 1014.0
20260903083030 26 229 1.6 4.8 0.00 0.00 0.00 83 1014.0
20260903081509 26 219 1.6 9.7 0.00 0.00 0.00 82 1014.0
20260903080011 26 265 0.0 4.8 0.00 0.00 0.00 82 1014.0
20260903074518 26 298 0.0 6.4 0.00 0.00 0.00 81 1014.0
20260903073026 26 170 3.2 11.3 0.00 0.00 0.00 80 1014.1
20260903071528 26 247 1.6 6.4 0.00 0.00 0.00 79 1014.2
20260903070011 27 188 0.0 8.0 0.00 0.00 0.00 77 1014.4
20260903064516 27 145 0.0 6.4 0.00 0.00 0.00 77 1014.4
20260903063021 27 123 0.0 3.2 0.00 0.00 0.00 76 1014.5
20260903061528 27 51 0.0 3.2 0.00 0.00 0.00 76 1014.5
20260903060032 26 157 0.0 8.0 0.00 0.00 0.00 77 1014.5
20260903054522 26 156 0.0 9.7 0.00 0.00 0.00 78 1014.5
20260903053020 26 123 1.6 11.3 0.00 0.00 0.00 78 1014.3
20260903051528 26 130 0.0 6.4 0.00 0.00 0.00 78 1014.5
20260903050029 26 79 1.6 6.4 0.00 0.00 0.00 78 1014.3
20260903044535 26 38 0.0 8.0 0.00 0.00 0.00 77 1014.3
20260903043017 27 311 0.0 9.7 0.00 0.00 0.00 76 1014.3
20260903041524 27 161 0.0 12.9 0.00 0.00 0.00 74 1014.3
20260903040031 27 238 0.0 3.2 0.00 0.00 0.00 72 1014.3
20260903034536 28 123 0.0 9.7 0.00 0.00 0.00 69 1014.3
20260903033038 28 142 1.6 11.3 0.00 0.00 0.00 65 1014.4
20260903031522 29 169 1.6 8.0 0.00 0.00 0.00 62 1014.0
20260903030030 30 90 0.0 4.8 0.00 0.00 0.00 59 1013.7
20260903024531 30 148 3.2 14.5 0.00 0.00 0.00 61 1013.3
20260903023031 29 91 0.0 0.0 0.00 0.00 0.00 62 1012.8
20260903021532 30 64 0.0 1.6 0.00 0.00 0.00 60 1012.6
20260903020026 30 38 0.0 1.6 0.00 0.00 0.00 59 1012.3
20260903014503 30 185 0.0 3.2 0.00 0.00 0.00 58 1012.1